This demonstration page uses our WeatherBlox Daily Observations layout. Learn more.

38.88101, -77.10428

Hourly Observations for March 23, 2020

Temp ( °F °C ) Dew Point ( °F °C ) Humidity (%) Winds ( mph kmh ) Pressure ( in mb ) Visibility ( mi km ) Precip ( " mm )
12:52 am 00:52 Cloudy 45 7.2 37 2.8 74 74 E 10 17 30.55 1034 10 16.0934 0 0
1:52 am 01:52 Cloudy with Light Rain 44 6.7 38 3.3 79 79 E 9 15 30.51 1033 8 12.87472 0.01 0.254
2:38 am 02:38 Cloudy with Light Rain 43 6.1 39 3.9 86 86 ENE 9 15 30.49 1033 9 14.48406 0.04 1.016
2:52 am 02:52 Cloudy with Light Rain 43 6.1 38 3.3 82 82 E 10 17 30.48 1032 10 16.0934 0.04 1.016
3:29 am 03:29 Cloudy with Light Rain 43 6.1 39 3.9 86 86 ENE 9 15 30.47 1032 7 11.26538 0.03 0.762
3:52 am 03:52 Cloudy with Light Rain 42 5.6 38 3.3 85 85 E 13 20 30.44 1031 10 16.0934 0.04 1.016
3:59 am 03:59 Cloudy 42 5.6 39 3.9 89 89 E 12 19 30.44 1031 10 16.0934 0.001 0.001
4:50 am 04:50 Cloudy with Light Rain 43 6 37 3 81 81 ENE 12 19 30.41 1030 10 16.0934 0.001 0.001
4:52 am 04:52 Cloudy with Light Rain 42 5.6 38 3.3 85 85 E 13 20 30.41 1030 10 16.0934 0.001 0.001
5:52 am 05:52 Cloudy with Light Rain 42 5.6 39 3.9 89 89 NE 14 22 30.4 1029 7 11.26538 0.01 0.254
6:52 am 06:52 Cloudy with Light Rain 42 5.6 39 3.9 89 89 ENE 14 22 30.35 1028 5 8.0467 0.02 0.508
7:52 am 07:52 Cloudy with Light Rain 42 5.6 39 3.9 89 89 ENE 9 15 30.34 1027 6 9.65604 0.01 0.254
8:07 am 08:07 Cloudy with Light Rain 42 5.6 39 3.9 89 89 ENE 12 19 30.35 1028 2.5 4.02335 0.01 0.254
8:12 am 08:12 Cloudy with Light Rain 42 5.6 40 4.4 92 92 NE 8 13 30.34 1027 1.25 2.011675 0.02 0.508
8:32 am 08:32 Cloudy with Light Rain 42 5.6 40 4.4 92 92 NE 8 13 30.33 1027 1.25 2.011675 0.05 1.27
8:52 am 08:52 Cloudy with Light Rain 42 5.6 40 4.4 92 92 N 8 13 30.34 1027 1.5 2.41401 0.07 1.778
9:12 am 09:12 Cloudy with Rain 42 5.6 40 4.4 92 92 NE 9 15 30.33 1027 1.25 2.011675 0.06 1.524
9:21 am 09:21 Cloudy with Light Rain 42 5.6 40 4.4 92 92 NNE 8 13 30.33 1027 2 3.21868 0.08 2.032
9:23 am 09:23 Cloudy with Light Rain 42 5.6 40 4.4 92 92 NNE 8 13 30.32 1027 1.5 2.41401 0.08 2.032
9:43 am 09:43 Cloudy with Light Rain 41 5 40 4.4 96 96 N 8 13 30.32 1027 2 3.21868 0.09 2.286
9:52 am 09:52 Cloudy with Light Rain 42 5.6 40 4.4 92 92 N 9 15 30.32 1027 2 3.21868 0.09 2.286
9:59 am 09:59 Cloudy with Light Rain 42 5.6 40 4.4 92 92 N 9 15 30.32 1027 2 3.21868 0.01 0.254
10:04 am 10:04 Cloudy with Light Rain 42 5.6 40 4.4 92 92 N 9 15 30.32 1027 2 3.21868 0.01 0.254
10:39 am 10:39 Cloudy with Light Rain 42 5.6 40 4.4 92 92 N 10 17 30.31 1026 2.5 4.02335 0.02 0.508
10:50 am 10:50 Cloudy with Light Rain 43 6 39 4 87 87 N 12 19 30.31 1026 3 4.82802 0.02 0.508
10:52 am 10:52 Cloudy with Light Rain 42 5.6 40 4.4 92 92 N 10 17 30.3 1026 3 4.82802 0.03 0.762
10:58 am 10:58 Cloudy with Light Rain 42 5.6 40 4.4 92 92 N 9 15 30.29 1026 4 6.43736 0.001 0.001
11:13 am 11:13 Cloudy with Light Rain 43 6.1 41 5 93 93 NNE 9 15 30.29 1026 2.5 4.02335 0.001 0.001
11:29 am 11:29 Cloudy with Mist and Fog 44 6.7 42 5.6 93 93 N 6 9 30.28 1025 3 4.82802 0.001 0.001
11:39 am 11:39 Cloudy with Mist and Fog 43 6.1 41 5 93 93 N 8 13 30.27 1025 3 4.82802 0.001 0.001
11:52 am 11:52 Cloudy with Mist and Fog 44 6.7 41 5 89 89 N 7 11 30.26 1025 4 6.43736 0.001 0.001
12:52 pm 12:52 Cloudy 44 6.7 42 5.6 93 93 N 9 15 30.19 1022 7 11.26538 0 0
1:24 pm 13:24 Cloudy 45 7.2 42 5.6 90 90 NNW 9 15 30.2 1023 7 11.26538 0 0
1:34 pm 13:34 Cloudy 44 6.7 42 5.6 93 93 NNW 10 17 30.18 1022 10 16.0934 0 0
1:52 pm 13:52 Cloudy with Light Rain 45 7.2 43 6.1 93 93 N 8 13 30.15 1021 5 8.0467 0.001 0.001
2:28 pm 14:28 Cloudy 46 7.8 43 6.1 89 89 NNW 5 7 30.12 1020 10 16.0934 0.001 0.001
2:52 pm 14:52 Cloudy with Light Rain 46 7.8 42 5.6 86 86 N 3 6 30.11 1020 10 16.0934 0.001 0.001
2:54 pm 14:54 Cloudy with Light Rain 46 7.8 42 5.6 86 86 NNW 3 6 30.11 1020 10 16.0934 0.001 0.001
3:02 pm 15:02 Cloudy with Light Rain 46 7.8 42 5.6 86 86 WNW 5 7 30.11 1020 8 12.87472 0.01 0.254
3:11 pm 15:11 Cloudy with Rain 46 7.8 42 5.6 86 86 NNW 7 11 30.1 1019 4 6.43736 0.03 0.762
3:52 pm 15:52 Cloudy 46 7.8 42 5.6 86 86 NW 10 17 30.08 1019 10 16.0934 0.03 0.762
4:52 pm 16:52 Cloudy 46 7.8 43 6.1 89 89 NNW 12 19 30.06 1018 10 16.0934 0.01 0.254
5:52 pm 17:52 Cloudy 46 7.8 42 5.6 86 86 NW 12 19 30.06 1018 10 16.0934 0 0
6:39 pm 18:39 Cloudy 46 7.8 41 5 83 83 W 7 11 30.06 1018 10 16.0934 0 0
6:52 pm 18:52 Cloudy 46 7.8 41 5 83 83 W 5 7 30.06 1018 10 16.0934 0 0
7:52 pm 19:52 Cloudy 46 7.8 41 5 83 83 W 6 9 30.06 1018 10 16.0934 0 0
8:52 pm 20:52 Cloudy 45 7.2 41 5 86 86 W 6 9 30.07 1018 10 16.0934 0 0
9:10 pm 21:10 Mostly Cloudy 45 7.2 40 4.4 83 83 W 3 6 30.08 1019 10 16.0934 0 0
9:52 pm 21:52 Partly Cloudy 44 6.7 40 4.4 85 85 WSW 3 6 30.08 1019 10 16.0934 0 0
10:17 pm 22:17 Mostly Cloudy 45 7.2 41 5 86 86 WSW 5 7 30.1 1019 10 16.0934 0 0
10:52 pm 22:52 Cloudy 44 6.7 41 5 89 89 SW 5 7 30.09 1019 10 16.0934 0 0
10:59 pm 22:59 Cloudy 45 7.2 41 5 86 86 WSW 5 7 30.09 1019 10 16.0934 0 0
11:52 pm 23:52 Cloudy 44 6.7 41 5 89 89 SW 5 7 30.11 1020 10 16.0934 0 0

Powered by AerisWeather